Regional Weather Roundup
Issued by NWS Charleston, SC

Current Version | Previous Version | Text Only | Print | Product List | Glossary Off
Versions: 1 2 3 4 5 6 7 8 9 10 11 12 13 14 15 16 17 18 19 20 21 22 23 24 25 26 27 28 29 30 31 32 33 34 35 36 37 38 39 40 41 42 43 44 45 46 47 48 49 50

000
ASUS42 KCHS 030127
RWRCHS

REGIONAL WEATHER ROUNDUP
NATIONAL WEATHER SERVICE CHARLESTON SC
800 PM EST FRI DEC 02 2016

NOTE: "FAIR" INDICATES FEW OR NO CLOUDS BELOW 12,000 FEET WITH NO
SIGNIFICANT WEATHER AND/OR OBSTRUCTIONS TO VISIBILITY.

NOT ALL STATIONS ARE QUALITY CONTROLLED. USE DATA WITH CAUTION...
ESPECIALLY DEWPOINT OBSERVATIONS.

SCZ027-030-031-034>040-042>050-030200-
...SOUTHEAST SOUTH CAROLINA...

CITY           SKY/WX    TMP DP  RH WIND       PRES   REMARKS
N CHARLESTON   CLEAR     47  37  68 CALM      30.19R
WATERFRONT PRK   N/A     55  41  59 CALM      30.18R
MOUNT PLEASANT FAIR      43  39  87 CALM      30.20R
JOHNS ISLAND   FAIR      45  39  81 CALM      30.21R
PINOPOLIS        N/A     55  45  67 NW5       30.10R
MONCKS CORNER  FAIR      41  37  87 CALM      30.20R
SUMMERVILLE    FAIR      43  43 100 CALM      30.22R
BEAUFORT MCAS  CLEAR     43  38  82 W5        30.21R
BEAUFORT ARPT  FAIR      48  41  76 NW5       30.22R
HILTON HEAD IS CLEAR     45  41  87 CALM      30.23R
WALTERBORO     CLEAR     43  43 100 CALM      30.22R
ALLENDALE      FAIR      46  37  71 CALM      30.20S

...SOUTHERN MIDLANDS AND PEE DEE...

CITY           SKY/WX    TMP DP  RH WIND       PRES   REMARKS
GEORGETOWN     NOT AVBL
KINGSTREE      FAIR      39  36  87 CALM      30.19S
ORANGEBURG     CLOUDY    46  37  71 CALM      30.20R
BARNWELL       NOT AVBL
AIKEN          FAIR      41  36  81 CALM      30.23S
MANNING        NOT AVBL
COLUMBIA       PTCLDY    47  36  65 W5        30.19S
SUMTER         CLEAR     45  37  72 CALM      30.17R
FLORENCE       PTCLDY    45  38  76 CALM      30.18R
MYRTLE BEACH   CLEAR     46  37  71 W6        30.20R
N MYRTLE BEACH PTCLDY    45  41  86 W3        30.18R

$$

GAZ063-065-086>088-099>101-113>116-118-119-134>141-150-030200-
...SOUTHEAST GEORGIA...

CITY           SKY/WX    TMP DP  RH WIND       PRES   REMARKS
SAVANNAH ARPT  PTCLDY    46  39  76 CALM      30.22R
HUNTER AAF     CLOUDY    48  42  80 CALM      30.19R
FORT STEWART   CLEAR     45  40  82 CALM      30.19R
STATESBORO     CLEAR     43  41  95 CALM      30.21S
SYLVANIA       CLEAR    N/A N/A N/A CALM      30.22S
CLAXTON        FAIR      41  41 100 CALM      30.22R

...CSRA...CENTRAL AND FAR SOUTHEAST GEORGIA...

CITY           SKY/WX    TMP DP  RH WIND       PRES   REMARKS
THOMSON        CLEAR     44  39  83 CALM      30.26R
AUGUSTA-BUSH   PTCLDY    45  35  68 CALM      30.20S
AUGUSTA-DANIEL CLOUDY    52  33  48 CALM      30.20F
SWAINSBORO     FAIR      41  36  81 CALM      30.22R
VIDALIA        CLOUDY    50  39  66 W3        30.23R
EASTMAN        FAIR      43  30  59 CALM      30.26R
HAZLEHURST     FAIR      53  34  50 CALM      30.21S
ALMA           PTCLDY    46  40  79 CALM      30.22R
WAYCROSS       PTCLDY    51  44  76 CALM      30.23R
JESUP          FAIR      45  43  93 CALM      30.22S
BAXLEY         FAIR      46  43  87 CALM      30.22R
BRUNSWICK      MOCLDY    48  45  87 CALM      30.23R
SAINT SIMONS   PTCLDY    55  40  56 N3        30.20R

$$

SCZ027-028-034-036>038-045-046-048>050-GAZ119-141-030200-
...LAKE AND SUPPLEMENTAL COASTAL OBSERVATIONS...

STATION/POSITION TIME  TEMP    WIND        PRES    WAVE   SWELL
                       AIR SEA DIR/SP/G            HT/PER HT/PER/DIR
                 (UTC) (F)     (DEG/KT/KT) (MB)    (FT/S) (FT/S/D)
WINYAH BAY       0030   47     320/  3     1022.0R
LAKE MURRAY      0020   55     260/  5/  5 1021.7
ACE BASIN NERRS  0045   45        CALM     1022.0R
FORT PULASKI     0100   55 63  350/  4/  5 1023.2
SAPELO ISLAND    0100   50        CALM     1023.0

$$

ANZ835-935-AMZ111-154-330-350-352-354-370-450-454-472-030200-
...C-MAN AND BUOY OBSERVATIONS...

STATION/POSITION TIME  TEMP    WIND        PRES    WAVE   SWELL
                       AIR SEA DIR/SP/G            HT/PER HT/PER/DIR
                 (UTC) (F)     (DEG/KT/KT) (MB)    (FT/S) (FT/S/D)
BUOY 41004       0050   60 75  340/ 12/ 16 1021.2R   3/ 5   2/110/ 9
BUOY 41008       0050   61 65  350/ 12/ 14 1022.2R   2/ 9   2/140/ 9
FOLLY BEACH CMAN 0100   54     300/  2/  3 1022.7R
CAPERS NEARSHORE 0108   58 63  330/  8/ 12 1022.0R
FRIPP NEARSHORE  0108   58 63  320/  8/ 10 1022.5R


STATION/POSITION TIME  TEMP    WIND        PRES    WAVE   SWELL
                       AIR SEA DIR/SP/G            HT/PER HT/PER/DIR
                 (UTC) (F)     (DEG/KT/KT) (MB)    (FT/S) (FT/S/D)
5E ST. MARYS GA  0100      66                N/A     2/ 8
FRYING PAN BUOY  0100   60 74  320/ 16/ 19 1020.6
BUOY 41025       0050   57 75  310/ 17/ 23 1018.8R   4/ 7   2/110/ 7
CAPE LOOKOUT NC  0100   55     300/ 15/ 18 1019.7R
BUOY 41002       0050   69 74  340/ 14/ 17 1018.1R   4/ 6   3/270/ 6
BUOY 41010       NOT AVBL
ST AUGUSTINE FL  0100   63 67  360/ 11/ 12 1023.0R


$$




USA.gov is the U.S. government's official web portal to all federal, state and local government web resources and services.